Time,TemperatureF,DewpointF,PressureIn,WindDirection,WindDirectionDegrees,WindSpeedMPH,WindSpeedGustMPH,Humidity,HourlyPrecipIn,Conditions,Clouds,dailyrainin,SoftwareType,DateUTC
2013-01-01 00:02:00,41.7,26.0,29.96,WSW,240,6.0,6.0,55,0.00,,,0.00,weatherlink.com 1.10,2013-01-01 05:02:00,
2013-01-01 00:17:00,41.8,26.0,29.96,WSW,240,5.0,6.0,53,0.00,,,0.00,weatherlink.com 1.10,2013-01-01 05:17:00,
2013-01-01 00:32:00,41.8,27.0,29.95,West,261,2.0,6.0,55,0.00,,,0.00,weatherlink.com 1.10,2013-01-01 05:32:00,
2013-01-01 00:47:00,41.8,25.0,29.95,WSW,256,4.0,7.0,52,0.00,,,0.00,weatherlink.com 1.10,2013-01-01 05:47:00,
2013-01-01 01:02:00,41.8,25.0,29.95,SW,221,5.0,7.0,52,0.00,,,0.00,weatherlink.com 1.10,2013-01-01 06:02:00,
2013-01-01 01:17:00,41.7,25.0,29.95,WSW,252,3.0,6.0,52,0.00,,,0.00,weatherlink.com 1.10,2013-01-01 06:17:00,
2013-01-01 01:32:00,41.6,25.0,29.96,WSW,246,2.0,6.0,53,0.00,,,0.00,weatherlink.com 1.10,2013-01-01 06:32:00,
2013-01-01 01:47:00,41.7,25.0,29.95,West,266,2.0,7.0,52,0.00,,,0.00,weatherlink.com 1.10,2013-01-01 06:47:00,
2013-01-01 02:02:00,41.6,25.0,29.96,West,281,3.0,6.0,52,0.00,,,0.00,weatherlink.com 1.10,2013-01-01 07:02:00,
2013-01-01 02:17:00,41.4,26.0,29.96,WNW,283,3.0,6.0,54,0.00,,,0.00,weatherlink.com 1.10,2013-01-01 07:17:00,
2013-01-01 02:32:00,41.0,26.0,29.96,West,260,3.0,5.0,55,0.00,,,0.00,weatherlink.com 1.10,2013-01-01 07:32:00,
2013-01-01 02:47:00,41.1,25.0,29.96,West,267,3.0,6.0,54,0.00,,,0.00,weatherlink.com 1.10,2013-01-01 07:47:00,
2013-01-01 03:02:00,41.3,26.0,29.95,WNW,288,3.0,5.0,54,0.00,,,0.00,weatherlink.com 1.10,2013-01-01 08:02:00,
2013-01-01 03:17:00,41.1,25.0,29.94,WSW,255,2.0,3.0,54,0.00,,,0.00,weatherlink.com 1.10,2013-01-01 08:17:00,
2013-01-01 03:32:00,40.6,26.0,29.95,WNW,284,4.0,4.0,56,0.00,,,0.00,weatherlink.com 1.10,2013-01-01 08:32:00,
2013-01-01 03:47:00,40.6,26.0,29.94,West,263,2.0,4.0,56,0.00,,,0.00,weatherlink.com 1.10,2013-01-01 08:47:00,
2013-01-01 04:02:00,40.3,25.0,29.94,WSW,252,3.0,4.0,55,0.00,,,0.00,weatherlink.com 1.10,2013-01-01 09:02:00,
2013-01-01 04:17:00,40.2,25.0,29.94,SW,233,6.0,6.0,55,0.00,,,0.00,weatherlink.com 1.10,2013-01-01 09:17:00,
2013-01-01 04:32:00,40.5,25.0,29.93,SW,217,2.0,6.0,55,0.00,,,0.00,weatherlink.com 1.10,2013-01-01 09:32:00,
2013-01-01 04:47:00,40.5,25.0,29.93,WSW,253,2.0,4.0,55,0.00,,,0.00,weatherlink.com 1.10,2013-01-01 09:47:00,
2013-01-01 05:02:00,40.5,26.0,29.93,West,259,2.0,4.0,56,0.00,,,0.00,weatherlink.com 1.10,2013-01-01 10:02:00,
2013-01-01 05:17:00,40.3,25.0,29.93,SSW,204,0.0,2.0,55,0.00,,,0.00,weatherlink.com 1.10,2013-01-01 10:17:00,
2013-01-01 05:32:00,40.3,26.0,29.94,West,274,2.0,2.0,58,0.00,,,0.00,weatherlink.com 1.10,2013-01-01 10:32:00,
2013-01-01 05:47:00,40.2,25.0,29.94,WSW,257,2.0,4.0,56,0.00,,,0.00,weatherlink.com 1.10,2013-01-01 10:47:00,
2013-01-01 06:02:00,40.0,26.0,29.94,SW,224,3.0,3.0,57,0.00,,,0.00,weatherlink.com 1.10,2013-01-01 11:02:00,
2013-01-01 06:17:00,40.0,26.0,29.93,WSW,257,2.0,3.0,57,0.00,,,0.00,weatherlink.com 1.10,2013-01-01 11:17:00,
2013-01-01 06:32:00,40.4,25.0,29.94,West,260,2.0,5.0,55,0.00,,,0.00,weatherlink.com 1.10,2013-01-01 11:32:00,
2013-01-01 06:47:00,40.5,26.0,29.95,WSW,256,3.0,5.0,57,0.00,,,0.00,weatherlink.com 1.10,2013-01-01 11:47:00,
2013-01-01 07:02:00,40.8,26.0,29.95,WNW,285,4.0,5.0,55,0.00,,,0.00,weatherlink.com 1.10,2013-01-01 12:02:00,
2013-01-01 07:17:00,41.5,26.0,29.95,SW,231,3.0,6.0,55,0.00,,,0.00,weatherlink.com 1.10,2013-01-01 12:17:00,
2013-01-01 07:32:00,41.4,27.0,29.94,West,275,2.0,4.0,56,0.00,,,0.00,weatherlink.com 1.10,2013-01-01 12:32:00,
2013-01-01 07:47:00,42.3,27.0,29.93,West,269,4.0,7.0,55,0.00,,,0.00,weatherlink.com 1.10,2013-01-01 12:47:00,
2013-01-01 08:03:00,42.0,28.0,29.94,West,273,6.0,6.0,57,0.00,,,0.00,weatherlink.com 1.10,2013-01-01 13:03:00,
2013-01-01 08:18:00,42.0,28.0,29.95,WNW,287,3.0,6.0,57,0.00,,,0.00,weatherlink.com 1.10,2013-01-01 13:18:00,
2013-01-01 08:33:00,42.1,28.0,29.95,WNW,288,7.0,7.0,58,0.00,,,0.00,weatherlink.com 1.10,2013-01-01 13:33:00,
2013-01-01 08:48:00,42.0,28.0,29.95,WSW,239,4.0,5.0,58,0.00,,,0.00,weatherlink.com 1.10,2013-01-01 13:48:00,
2013-01-01 09:03:00,42.0,28.0,29.95,West,264,3.0,5.0,58,0.00,,,0.00,weatherlink.com 1.10,2013-01-01 14:03:00,
2013-01-01 09:18:00,41.9,28.0,29.95,WSW,243,1.0,4.0,58,0.00,,,0.00,weatherlink.com 1.10,2013-01-01 14:18:00,
2013-01-01 09:33:00,42.1,29.0,29.95,WNW,290,3.0,4.0,59,0.00,,,0.00,weatherlink.com 1.10,2013-01-01 14:33:00,
2013-01-01 09:48:00,42.5,29.0,29.95,WNW,300,3.0,5.0,59,0.00,,,0.00,weatherlink.com 1.10,2013-01-01 14:48:00,
2013-01-01 10:03:00,42.9,29.0,29.95,NW,304,3.0,6.0,59,0.00,,,0.00,weatherlink.com 1.10,2013-01-01 15:03:00,
2013-01-01 10:18:00,43.1,30.0,29.95,WNW,284,5.0,5.0,60,0.00,,,0.00,weatherlink.com 1.10,2013-01-01 15:18:00,
2013-01-01 10:33:00,43.3,30.0,29.95,WNW,290,3.0,7.0,61,0.00,,,0.00,weatherlink.com 1.10,2013-01-01 15:33:00,
2013-01-01 10:48:00,43.4,30.0,29.94,NW,304,5.0,6.0,60,0.00,,,0.00,weatherlink.com 1.10,2013-01-01 15:48:00,
2013-01-01 11:03:00,43.7,30.0,29.95,WNW,283,4.0,7.0,60,0.00,,,0.00,weatherlink.com 1.10,2013-01-01 16:03:00,
2013-01-01 11:18:00,43.8,30.0,29.93,WNW,295,6.0,8.0,59,0.00,,,0.00,weatherlink.com 1.10,2013-01-01 16:18:00,
2013-01-01 11:33:00,44.0,30.0,29.93,West,278,5.0,9.0,59,0.00,,,0.00,weatherlink.com 1.10,2013-01-01 16:33:00,
2013-01-01 11:48:00,44.1,30.0,29.92,WNW,295,5.0,10.0,59,0.00,,,0.00,weatherlink.com 1.10,2013-01-01 16:48:00,
2013-01-01 12:03:00,44.2,30.0,29.91,West,260,4.0,8.0,59,0.00,,,0.00,weatherlink.com 1.10,2013-01-01 17:03:00,
2013-01-01 12:18:00,44.3,31.0,29.91,WNW,286,5.0,10.0,59,0.00,,,0.00,weatherlink.com 1.10,2013-01-01 17:18:00,
2013-01-01 12:33:00,44.4,30.0,29.91,WNW,297,8.0,11.0,58,0.00,,,0.00,weatherlink.com 1.10,2013-01-01 17:33:00,
2013-01-01 12:48:00,44.5,30.0,29.90,WSW,257,7.0,9.0,58,0.00,,,0.00,weatherlink.com 1.10,2013-01-01 17:48:00,
2013-01-01 13:18:00,44.7,31.0,29.87,West,269,3.0,7.0,59,0.00,,,0.00,weatherlink.com 1.10,2013-01-01 18:18:00,
2013-01-01 13:33:00,44.7,31.0,29.88,WNW,285,9.0,11.0,60,0.00,,,0.00,weatherlink.com 1.10,2013-01-01 18:33:00,
2013-01-01 13:48:00,44.7,31.0,29.87,West,281,7.0,9.0,59,0.00,,,0.00,weatherlink.com 1.10,2013-01-01 18:48:00,
2013-01-01 14:03:00,44.7,31.0,29.87,WNW,294,6.0,11.0,58,0.00,,,0.00,weatherlink.com 1.10,2013-01-01 19:03:00,
2013-01-01 14:18:00,44.7,31.0,29.88,WNW,283,8.0,11.0,58,0.00,,,0.00,weatherlink.com 1.10,2013-01-01 19:18:00,
2013-01-01 14:33:00,44.6,31.0,29.89,NW,309,6.0,9.0,60,0.00,,,0.00,weatherlink.com 1.10,2013-01-01 19:33:00,
2013-01-01 14:48:00,44.5,31.0,29.88,NNW,327,7.0,8.0,59,0.00,,,0.00,weatherlink.com 1.10,2013-01-01 19:48:00,
2013-01-01 15:03:00,44.3,31.0,29.89,NW,304,4.0,8.0,59,0.00,,,0.00,weatherlink.com 1.10,2013-01-01 20:03:00,
2013-01-01 15:18:00,44.2,30.0,29.89,NW,308,7.0,11.0,59,0.00,,,0.00,weatherlink.com 1.10,2013-01-01 20:18:00,
2013-01-01 15:33:00,44.2,30.0,29.90,WNW,295,8.0,14.0,59,0.00,,,0.00,weatherlink.com 1.10,2013-01-01 20:33:00,
2013-01-01 15:48:00,44.0,31.0,29.90,WNW,299,5.0,10.0,60,0.00,,,0.00,weatherlink.com 1.10,2013-01-01 20:48:00,
2013-01-01 16:03:00,43.9,31.0,29.89,WNW,294,6.0,8.0,60,0.00,,,0.00,weatherlink.com 1.10,2013-01-01 21:03:00,
2013-01-01 16:18:00,43.8,31.0,29.90,West,280,7.0,12.0,60,0.00,,,0.00,weatherlink.com 1.10,2013-01-01 21:18:00,
2013-01-01 16:33:00,43.6,30.0,29.90,WNW,295,4.0,8.0,60,0.00,,,0.00,weatherlink.com 1.10,2013-01-01 21:33:00,
2013-01-01 16:48:00,43.7,31.0,29.92,WNW,295,4.0,9.0,61,0.00,,,0.00,weatherlink.com 1.10,2013-01-01 21:48:00,
2013-01-01 17:03:00,43.4,31.0,29.92,WNW,290,4.0,6.0,61,0.00,,,0.00,weatherlink.com 1.10,2013-01-01 22:03:00,
2013-01-01 17:18:00,43.3,31.0,29.91,NW,312,4.0,6.0,62,0.00,,,0.00,weatherlink.com 1.10,2013-01-01 22:18:00,
2013-01-01 17:33:00,43.1,31.0,29.91,NW,315,4.0,7.0,62,0.00,,,0.00,weatherlink.com 1.10,2013-01-01 22:33:00,
2013-01-01 17:48:00,43.1,30.0,29.92,WNW,285,7.0,9.0,61,0.00,,,0.00,weatherlink.com 1.10,2013-01-01 22:48:00,
2013-01-01 18:03:00,42.9,31.0,29.93,NW,318,5.0,8.0,62,0.00,,,0.00,weatherlink.com 1.10,2013-01-01 23:03:00,
2013-01-01 18:18:00,42.8,30.0,29.94,WNW,293,4.0,9.0,62,0.00,,,0.00,weatherlink.com 1.10,2013-01-01 23:18:00,
2013-01-01 18:33:00,42.7,30.0,29.94,WNW,296,3.0,9.0,62,0.00,,,0.00,weatherlink.com 1.10,2013-01-01 23:33:00,
2013-01-01 18:48:00,42.6,31.0,29.94,WNW,294,3.0,9.0,63,0.00,,,0.00,weatherlink.com 1.10,2013-01-01 23:48:00,
2013-01-01 19:03:00,42.5,30.0,29.94,WNW,298,4.0,7.0,62,0.00,,,0.00,weatherlink.com 1.10,2013-01-02 00:03:00,
2013-01-01 19:18:00,42.4,30.0,29.95,WNW,291,5.0,6.0,63,0.00,,,0.00,weatherlink.com 1.10,2013-01-02 00:18:00,
2013-01-01 19:33:00,42.4,31.0,29.96,WNW,297,3.0,6.0,64,0.00,,,0.00,weatherlink.com 1.10,2013-01-02 00:33:00,
2013-01-01 19:48:00,42.3,31.0,29.95,WNW,293,5.0,5.0,65,0.00,,,0.00,weatherlink.com 1.10,2013-01-02 00:48:00,
2013-01-01 20:04:00,42.1,31.0,29.95,WNW,302,3.0,5.0,66,0.00,,,0.00,weatherlink.com 1.10,2013-01-02 01:04:00,
2013-01-01 20:19:00,41.9,30.0,29.94,NNW,339,8.0,10.0,64,0.00,,,0.00,weatherlink.com 1.10,2013-01-02 01:19:00,
2013-01-01 20:34:00,41.8,31.0,29.94,North,1,5.0,7.0,65,0.00,,,0.00,weatherlink.com 1.10,2013-01-02 01:34:00,
2013-01-01 20:49:00,41.6,30.0,29.95,WNW,302,7.0,13.0,64,0.00,,,0.00,weatherlink.com 1.10,2013-01-02 01:49:00,
2013-01-01 21:04:00,41.5,30.0,29.95,WNW,302,7.0,12.0,64,0.00,,,0.00,weatherlink.com 1.10,2013-01-02 02:04:00,
2013-01-01 21:19:00,41.4,30.0,29.96,NW,312,8.0,13.0,64,0.00,,,0.00,weatherlink.com 1.10,2013-01-02 02:19:00,
2013-01-01 21:34:00,41.2,30.0,29.96,NW,314,6.0,13.0,64,0.00,,,0.00,weatherlink.com 1.10,2013-01-02 02:34:00,
2013-01-01 21:49:00,41.1,30.0,29.96,NW,312,10.0,14.0,65,0.00,,,0.00,weatherlink.com 1.10,2013-01-02 02:49:00,
2013-01-01 22:04:00,41.0,30.0,29.96,NW,311,5.0,11.0,65,0.00,,,0.00,weatherlink.com 1.10,2013-01-02 03:04:00,
2013-01-01 22:19:00,41.0,30.0,29.98,NNW,337,5.0,7.0,65,0.00,,,0.00,weatherlink.com 1.10,2013-01-02 03:19:00,
2013-01-01 22:34:00,40.8,30.0,29.98,NW,304,7.0,9.0,66,0.00,,,0.00,weatherlink.com 1.10,2013-01-02 03:34:00,
2013-01-01 22:49:00,40.6,30.0,29.98,NW,318,4.0,8.0,67,0.00,,,0.00,weatherlink.com 1.10,2013-01-02 03:49:00,
2013-01-01 23:04:00,40.4,31.0,29.98,North,354,5.0,8.0,68,0.00,,,0.00,weatherlink.com 1.10,2013-01-02 04:04:00,
2013-01-01 23:19:00,40.2,30.0,29.97,NW,321,4.0,8.0,68,0.00,,,0.00,weatherlink.com 1.10,2013-01-02 04:19:00,
2013-01-01 23:34:00,40.0,30.0,29.98,North,354,8.0,10.0,68,0.00,,,0.00,weatherlink.com 1.10,2013-01-02 04:34:00,
2013-01-01 23:49:00,39.7,30.0,29.98,NW,313,6.0,8.0,68,0.00,,,0.00,weatherlink.com 1.10,2013-01-02 04:49:00,